User: anonymous   Login
Location: Unspecified
(0.0000°N, 0.0000°E)
Time: 06:37:59
(UTC+00:00)
Language:

Nadezhda 1 - Orbit

View from above orbital plane
View from above orbital plane
View from above satellite
View from above satellite

Ground track
Ground track

The orbit data is extracted from the following two-line orbital elements,

1 20103U 89050A   19082.14536062  .00000011  00000-0 -35926-5 0  9998
2 20103  82.9570  93.3197 0036032 280.5054 145.1744 13.74574987490597
Epoch (UTC): 23 March 2019 03:29:19
Eccentricity: 0.0036032
inclination: 82.9570°
perigee height: 956 km
apogee height: 1010 km
right ascension of ascending node: 93.3197°
argument of perigee: 280.5054°
revolutions per day: 13.74574987
mean anomaly at epoch: 145.1744°
orbit number at epoch: 49059

The dashed part of the orbit path shows where the satellite is in the earth's shadow,  

DLR